Overview Statistics Trail Chart Weather Telemetry Raw packets
 

This is the latest recevied weather packets stored in our database for station/object HB9DDE-10. If no packets are shown the sender has not sent any weather packets the latest 10 day(s).

<< 1 2 3 4 5 >>
Time Temp. Humidity Pressure Rain* Wind** Luminosity Snow
1788590554 18.89° C 84% 1023.1 hPa 0 mm - - -
1788590262 19.44° C 82% 1023.1 hPa 0 mm - - -
1788589956 19.44° C 81% 1023.1 hPa 0 mm - - -
1788589644 20° C 79% 1023.1 hPa 0 mm - - -
1788589356 20° C 76% 1023 hPa 0 mm - - -
1788589060 20° C 74% 1023 hPa 0 mm - - -
1788588749 20° C 74% 1022.9 hPa 0 mm - - -
1788588459 20.56° C 73% 1022.9 hPa 0 mm - - -
1788588150 20.56° C 72% 1022.7 hPa 0 mm - - -
1788587860 20.56° C 72% 1022.8 hPa 0 mm - - -
1788587552 20.56° C 73% 1022.8 hPa 0 mm - - -
1788587246 20° C 73% 1022.7 hPa 0 mm - - -
1788586957 20° C 75% 1022.8 hPa 0 mm - - -
1788586646 20° C 75% 1022.7 hPa 0 mm - - -
1788586354 20° C 75% 1022.8 hPa 0 mm - - -
1788586062 20.56° C 73% 1022.7 hPa 0 mm - - -
1788585752 20.56° C 73% 1022.5 hPa 0 mm - - -
1788585461 20.56° C 73% 1022.3 hPa 0 mm - - -
1788585152 20.56° C 72% 1022.2 hPa 0 mm - - -
1788584844 20.56° C 72% 1022.1 hPa 0 mm - - -
1788584553 20.56° C 71% 1022.1 hPa 0 mm - - -
1788584262 21.11° C 71% 1022.1 hPa 0 mm - - -
1788583952 21.11° C 70% 1022 hPa 0 mm - - -
1788583660 21.11° C 70% 1022 hPa 0 mm - - -
1788583350 21.11° C 70% 1022.1 hPa 0 mm - - -

* Rain latest hour (hover to see other rain measurements)
** Current wind speed in m/s (hover to see current wind gust speed)